�N����,����,�~����,�C��,���x,�C��,����,���ϕ���,�ő�u�ԕ���,�ő厞����,���˗�,�I�_���x,�n�����x,�ő啗���N��,DTYPE
"20/02/20","00:10",0.0,3.0,86.9,1022.3,328.4,1.8,2.8,323.8,0.00,1.1,7.9,"00:06:08",1
"20/02/20","00:20",0.0,3.6,87.3,1022.7,329.1,2.7,4.8,344.0,0.00,1.7,7.7,"00:18:32",1
"20/02/20","00:30",0.0,4.0,86.9,1022.5,325.1,4.2,5.5,324.4,0.00,2.1,7.7,"00:26:48",1
"20/02/20","00:40",0.0,4.2,86.6,1022.5,316.9,3.1,4.3,338.1,0.00,2.2,7.5,"00:32:24",1
"20/02/20","00:50",0.0,4.2,86.1,1023.0,313.1,3.1,4.4,325.4,0.00,2.1,7.6,"00:45:36",1
"20/02/20","01:00",0.0,4.1,85.8,1023.2,323.0,3.0,4.3,333.5,0.00,2.0,7.7,"00:55:44",1
"20/02/20","01:10",0.0,4.0,85.6,1023.0,322.3,2.8,4.0,322.1,0.00,1.8,7.4,"01:03:52",1
"20/02/20","01:20",0.0,3.8,85.5,1023.0,319.7,2.0,3.3,315.0,0.00,1.6,7.5,"01:10:08",1
"20/02/20","01:30",0.0,3.6,85.6,1023.2,319.4,1.7,3.2,340.3,0.00,1.5,7.5,"01:28:00",1
"20/02/20","01:40",0.0,3.7,85.8,1023.2,331.0,1.8,3.2,336.0,0.00,1.6,7.4,"01:32:58",1
"20/02/20","01:50",0.0,3.7,86.0,1023.0,321.3,1.8,3.6,333.3,0.00,1.6,7.4,"01:45:04",1
"20/02/20","02:00",0.0,3.5,86.2,1023.4,254.4,0.8,1.7,246.7,0.00,1.5,7.5,"01:59:58",1
"20/02/20","02:10",0.0,3.6,86.5,1023.2,260.6,1.6,2.2,275.6,0.00,1.6,7.3,"02:05:38",1
"20/02/20","02:20",0.0,3.4,86.7,1023.2,331.5,1.8,2.7,341.9,0.00,1.4,7.2,"02:14:36",1
"20/02/20","02:30",0.0,3.1,87.0,1022.7,315.0,1.7,2.5,327.2,0.00,1.2,7.3,"02:21:28",1
"20/02/20","02:40",0.0,3.1,87.3,1022.7,274.0,1.2,1.6,242.9,0.00,1.2,7.0,"02:33:40",1
"20/02/20","02:50",0.0,3.0,87.6,1022.7,300.6,1.6,2.2,323.9,0.00,1.2,7.2,"02:46:40",1
"20/02/20","03:00",0.0,2.8,87.9,1022.7,308.2,1.8,2.6,319.4,0.00,1.0,7.2,"02:57:12",1
"20/02/20","03:10",0.0,2.7,88.2,1022.7,310.3,2.0,2.6,315.0,0.00,1.0,7.2,"03:02:00",1
"20/02/20","03:20",0.0,2.6,88.6,1022.5,303.7,2.2,3.2,314.2,0.00,1.0,7.1,"03:18:48",1
"20/02/20","03:30",0.0,2.7,88.9,1023.0,294.4,2.0,3.3,301.2,0.00,1.1,7.2,"03:20:08",1
"20/02/20","03:40",0.0,2.5,89.1,1023.0,298.4,1.8,2.6,322.9,0.00,0.9,7.0,"03:32:48",1
"20/02/20","03:50",0.0,2.4,89.4,1022.5,309.6,2.1,2.8,308.0,0.00,0.9,7.0,"03:41:28",1
"20/02/20","04:00",0.0,2.1,89.5,1022.7,279.6,1.1,2.4,326.1,0.00,0.6,7.0,"03:55:20",1
"20/02/20","04:10",0.0,1.9,90.0,1022.5,288.7,1.6,2.5,305.9,0.00,0.5,6.9,"04:08:44",1
"20/02/20","04:20",0.0,2.3,90.3,1022.7,308.2,2.6,3.7,321.2,0.00,0.9,6.9,"04:17:28",1
"20/02/20","04:30",0.0,2.3,90.4,1022.5,332.7,0.8,2.2,317.5,0.00,0.9,7.0,"04:20:08",1
"20/02/20","04:40",0.0,2.0,90.7,1023.0,288.9,1.1,1.9,321.8,0.00,0.7,6.9,"04:35:52",1
"20/02/20","04:50",0.0,2.2,90.9,1022.7,310.3,1.6,2.6,325.0,0.00,0.9,6.9,"04:46:08",1
"20/02/20","05:00",0.0,2.2,91.1,1023.0,296.5,1.5,2.4,313.4,0.00,0.9,6.6,"04:56:08",1
"20/02/20","05:10",0.0,2.1,91.3,1023.0,309.6,1.3,2.1,322.7,0.00,0.9,6.7,"05:08:56",1
"20/02/20","05:20",0.0,1.9,91.5,1023.0,297.5,1.5,3.1,320.1,0.00,0.7,6.8,"05:19:28",1
"20/02/20","05:30",0.0,2.0,91.6,1022.7,292.7,1.8,3.6,318.4,0.00,0.8,6.8,"05:21:20",1
"20/02/20","05:40",0.0,1.9,91.6,1023.0,288.5,1.3,2.8,311.8,0.00,0.7,6.6,"05:31:36",1
"20/02/20","05:50",0.0,1.6,91.8,1023.0,290.8,1.1,1.7,310.6,0.00,0.5,6.8,"05:45:44",1
"20/02/20","06:00",0.0,1.5,92.0,1023.0,300.5,1.8,2.6,313.3,0.00,0.4,6.7,"05:58:00",1
"20/02/20","06:10",0.0,1.4,92.2,1022.7,306.3,2.0,2.5,314.4,0.00,0.3,6.9,"06:01:04",1
"20/02/20","06:20",0.0,1.6,92.4,1022.7,324.2,2.1,3.1,321.8,0.00,0.5,6.6,"06:11:20",1
"20/02/20","06:30",0.0,1.5,92.5,1023.0,300.8,1.8,2.4,318.7,0.00,0.5,6.4,"06:20:56",1
"20/02/20","06:40",0.0,1.4,92.7,1023.0,285.9,1.8,2.5,304.0,0.00,0.4,6.5,"06:32:08",1
"20/02/20","06:50",0.0,1.4,92.9,1023.0,315.0,1.7,2.2,312.5,0.00,0.4,6.3,"06:41:44",1
"20/02/20","07:00",0.0,1.2,93.0,1023.4,303.8,1.6,2.6,322.7,0.00,0.2,6.5,"06:58:32",1
"20/02/20","07:10",0.0,1.5,93.3,1023.7,315.7,2.3,3.3,322.2,0.00,0.6,6.5,"07:08:08",1
"20/02/20","07:20",0.0,1.8,93.3,1023.7,323.3,2.6,4.0,322.6,0.00,0.9,6.5,"07:10:32",1
"20/02/20","07:30",0.0,1.9,93.4,1023.7,322.1,2.2,3.2,322.7,0.00,1.0,6.3,"07:22:56",1
"20/02/20","07:40",0.0,1.7,93.5,1023.9,315.2,2.1,2.8,334.5,0.00,0.8,6.4,"07:30:56",1
"20/02/20","07:50",0.0,1.9,93.7,1024.1,305.7,1.8,2.9,320.1,0.00,1.0,6.4,"07:44:40",1
"20/02/20","08:00",0.0,2.3,93.9,1023.9,284.0,1.2,2.2,312.6,0.01,1.5,6.2,"07:53:44",1
"20/02/20","08:10",0.0,2.9,93.6,1024.4,295.7,2.2,4.0,314.4,0.01,2.0,6.4,"08:09:28",1
"20/02/20","08:20",0.0,3.2,93.6,1024.4,282.2,1.8,3.2,327.9,0.03,2.3,6.3,"08:11:28",1
"20/02/20","08:30",0.0,3.6,93.5,1025.1,319.1,1.5,2.6,308.4,0.05,2.7,6.2,"08:20:24",1
"20/02/20","08:40",0.0,4.2,93.4,1025.3,309.9,1.0,1.8,340.2,0.09,3.3,6.4,"08:31:46",1
"20/02/20","08:50",0.0,4.2,93.0,1025.6,214.5,0.5,1.2,295.9,0.07,3.2,6.4,"08:40:08",1
"20/02/20","09:00",0.0,4.5,92.7,1025.8,241.5,0.6,1.4,255.1,0.09,3.5,6.4,"08:56:02",1
"20/02/20","09:10",0.0,4.8,92.6,1026.3,272.8,1.6,2.8,265.2,0.08,3.7,6.5,"09:04:44",1
"20/02/20","09:20",0.0,5.0,92.3,1026.5,280.5,1.5,2.4,321.7,0.11,3.9,6.7,"09:10:48",1
"20/02/20","09:30",0.0,5.7,91.9,1026.3,281.7,1.5,2.4,249.6,0.21,4.5,6.7,"09:25:56",1
"20/02/20","09:40",0.0,6.0,90.8,1026.5,249.7,1.2,3.1,247.0,0.22,4.7,6.7,"09:32:02",1
"20/02/20","09:50",0.0,6.1,89.3,1026.5,251.1,1.2,2.5,239.7,0.14,4.5,6.9,"09:43:04",1
"20/02/20","10:00",0.0,6.0,88.4,1026.7,269.6,0.7,1.1,239.4,0.08,4.3,7.0,"09:57:04",1
"20/02/20","10:10",0.0,6.1,87.6,1026.5,272.4,1.0,2.2,249.2,0.08,4.2,7.2,"10:02:00",1
"20/02/20","10:20",0.0,6.2,86.6,1026.7,269.6,0.8,1.7,288.1,0.09,4.2,7.2,"10:10:32",1
"20/02/20","10:30",0.0,6.4,85.7,1026.3,259.7,0.6,1.6,260.3,0.11,4.2,7.4,"10:21:20",1
"20/02/20","10:40",0.0,6.9,85.1,1026.3,289.4,0.8,1.3,273.6,0.18,4.6,7.4,"10:35:28",1
"20/02/20","10:50",0.0,7.9,83.4,1026.3,231.7,1.0,2.0,267.1,0.39,5.3,7.7,"10:41:52",1
"20/02/20","11:00",0.0,8.7,81.0,1026.3,254.6,0.7,1.9,209.7,0.43,5.7,7.9,"10:59:52",1
"20/02/20","11:10",0.0,9.0,77.1,1026.0,221.5,1.1,2.5,216.1,0.40,5.2,8.1,"11:00:32",1
"20/02/20","11:20",0.0,9.5,74.0,1026.3,212.7,1.0,2.1,101.3,0.37,5.1,8.3,"11:17:36",1
"20/02/20","11:30",0.0,9.8,71.3,1026.3,319.6,1.2,2.2,312.7,0.41,4.9,8.6,"11:29:52",1
"20/02/20","11:40",0.0,10.5,69.1,1026.0,236.8,0.7,1.6,204.6,0.37,5.1,8.6,"11:33:28",1
"20/02/20","11:50",0.0,10.6,67.7,1026.3,174.9,1.1,2.4,116.8,0.32,4.9,8.8,"11:41:20",1
"20/02/20","12:00",0.0,10.6,67.9,1026.0,182.6,1.3,2.6,191.5,0.31,5.0,9.2,"11:55:36",1
"20/02/20","12:10",0.0,10.8,67.1,1026.0,175.6,1.3,2.6,192.6,0.32,5.0,9.4,"12:08:08",1
"20/02/20","12:20",0.0,11.2,65.5,1025.6,206.7,1.0,1.9,209.4,0.27,5.0,9.7,"12:14:08",1
"20/02/20","12:30",0.0,11.8,63.6,1025.3,309.8,1.3,2.7,348.0,0.29,5.2,9.8,"12:27:52",1
"20/02/20","12:40",0.0,11.5,60.6,1025.3,6.1,1.2,2.9,357.1,0.24,4.2,9.8,"12:36:48",1
"20/02/20","12:50",0.0,11.4,59.8,1025.3,5.6,1.2,2.7,340.0,0.23,3.9,9.8,"12:41:36",1
"20/02/20","13:00",0.0,11.9,59.0,1025.1,281.7,1.8,3.5,241.2,0.30,4.2,9.9,"12:57:04",1
"20/02/20","13:10",0.0,12.2,56.5,1024.9,284.4,1.6,3.6,261.8,0.29,3.9,10.2,"13:04:56",1
"20/02/20","13:20",0.0,12.5,55.7,1024.9,267.6,1.7,3.4,316.1,0.28,3.9,10.3,"13:19:44",1
"20/02/20","13:30",0.0,12.1,54.8,1024.9,318.5,3.0,6.0,319.8,0.26,3.3,10.2,"13:28:16",1
"20/02/20","13:40",0.0,12.5,53.4,1024.4,300.7,2.0,4.1,327.5,0.34,3.3,10.5,"13:35:28",1
"20/02/20","13:50",0.0,12.8,53.5,1024.4,326.5,1.6,3.6,343.1,0.31,3.6,10.6,"13:48:08",1
"20/02/20","14:00",0.0,13.1,52.1,1024.1,301.5,1.5,3.6,337.1,0.34,3.5,10.7,"13:50:16",1
"20/02/20","14:10",0.0,13.1,51.3,1023.9,337.6,1.7,3.5,345.0,0.36,3.3,10.9,"14:06:24",1
"20/02/20","14:20",0.0,12.8,50.7,1024.1,309.7,1.8,5.0,332.6,0.28,2.9,10.8,"14:18:40",1
"20/02/20","14:30",0.0,12.8,51.6,1024.1,325.8,2.5,4.8,340.7,0.34,3.1,11.0,"14:21:28",1
"20/02/20","14:40",0.0,13.4,51.3,1024.4,283.6,1.8,3.4,263.9,0.36,3.6,11.2,"14:38:08",1
"20/02/20","14:50",0.0,13.5,48.7,1024.1,320.4,2.7,5.4,336.3,0.35,3.0,11.2,"14:42:48",1
"20/02/20","15:00",0.0,12.9,50.7,1023.9,313.7,3.0,5.1,330.1,0.18,3.0,11.4,"14:56:24",1
"20/02/20","15:10",0.0,12.7,52.4,1024.1,334.1,2.2,3.5,13.0,0.13,3.3,11.3,"15:00:08",1
"20/02/20","15:20",0.0,12.3,52.8,1023.9,331.6,2.8,6.0,339.6,0.12,3.0,11.1,"15:14:24",1
"20/02/20","15:30",0.0,12.8,53.3,1023.7,338.8,2.0,4.5,340.0,0.22,3.6,11.3,"15:22:40",1
"20/02/20","15:40",0.0,13.7,48.4,1023.9,347.0,3.1,6.6,337.7,0.40,3.1,11.6,"15:36:24",1
"20/02/20","15:50",0.0,13.6,47.2,1023.7,344.2,3.5,8.1,341.8,0.33,2.6,11.5,"15:44:40",1
"20/02/20","16:00",0.0,13.6,46.2,1023.9,326.7,4.2,6.3,337.5,0.30,2.3,11.6,"15:50:16",1
"20/02/20","16:10",0.0,13.6,46.5,1023.9,313.1,3.2,5.1,315.2,0.22,2.4,11.3,"16:00:40",1
"20/02/20","16:20",0.0,13.4,47.5,1023.9,319.4,3.1,6.6,346.4,0.20,2.5,11.4,"16:13:12",1
"20/02/20","16:30",0.0,13.2,47.4,1023.7,348.0,3.1,6.7,332.4,0.20,2.3,11.5,"16:20:02",1
"20/02/20","16:40",0.0,13.2,47.7,1024.1,335.2,2.7,5.8,337.8,0.16,2.4,11.6,"16:30:08",1
"20/02/20","16:50",0.0,13.4,48.4,1024.4,345.0,2.3,4.9,347.8,0.17,2.8,11.5,"16:44:48",1
"20/02/20","17:00",0.0,13.4,49.3,1024.4,331.9,2.6,4.5,323.7,0.15,3.0,11.6,"16:53:04",1
"20/02/20","17:10",0.0,12.9,50.0,1024.1,326.1,2.8,6.3,330.5,0.10,2.8,11.6,"17:01:20",1
"20/02/20","17:20",0.0,12.8,50.5,1024.6,318.6,2.0,4.2,330.7,0.06,2.8,11.7,"17:17:20",1
"20/02/20","17:30",0.0,12.6,50.2,1024.9,319.8,2.6,4.2,323.6,0.07,2.6,11.3,"17:26:24",1
"20/02/20","17:40",0.0,12.0,53.1,1024.9,335.4,3.1,5.9,336.1,0.02,2.8,11.5,"17:35:52",1
"20/02/20","17:50",0.0,11.4,56.5,1024.9,335.5,3.1,6.5,338.6,0.01,3.1,11.4,"17:48:26",1
"20/02/20","18:00",0.0,11.0,58.8,1025.3,335.6,4.2,8.3,344.8,0.00,3.3,11.2,"17:53:56",1
"20/02/20","18:10",0.0,10.7,60.7,1025.3,335.1,3.9,6.3,338.6,0.00,3.5,11.2,"18:02:12",1
"20/02/20","18:20",0.0,10.2,63.1,1025.3,341.9,2.7,5.0,340.8,0.00,3.5,11.0,"18:14:56",1
"20/02/20","18:30",0.0,9.8,65.4,1025.8,346.1,2.5,4.7,343.5,0.00,3.7,10.9,"18:26:32",1
"20/02/20","18:40",0.0,9.4,67.3,1025.8,338.5,2.5,4.8,347.1,0.00,3.7,10.7,"18:30:52",1
"20/02/20","18:50",0.0,9.0,69.1,1026.3,332.1,2.8,5.5,339.2,0.00,3.7,10.7,"18:48:32",1
"20/02/20","19:00",0.0,8.9,70.7,1026.0,334.9,3.5,6.5,349.2,0.00,3.9,10.6,"18:52:34",1
"20/02/20","19:10",0.0,8.6,71.7,1026.3,331.6,3.1,5.1,327.6,0.00,3.8,10.5,"19:01:12",1
"20/02/20","19:20",0.0,8.5,72.7,1026.3,327.6,3.5,4.8,318.0,0.00,3.9,10.3,"19:11:12",1
"20/02/20","19:30",0.0,8.3,73.7,1026.5,334.9,3.5,6.2,336.5,0.00,3.9,10.3,"19:27:14",1
"20/02/20","19:40",0.0,8.4,74.4,1027.0,332.5,4.5,7.5,340.0,0.00,4.2,10.0,"19:33:38",1
"20/02/20","19:50",0.0,8.2,74.9,1027.0,331.4,4.0,6.7,334.8,0.00,4.1,10.0,"19:42:40",1
"20/02/20","20:00",0.0,8.2,75.4,1027.2,329.8,4.7,8.2,342.3,0.00,4.2,9.7,"19:59:58",1
"20/02/20","20:10",0.0,8.2,75.7,1027.2,328.6,4.6,6.6,340.4,0.00,4.2,9.8,"20:03:00",1
"20/02/20","20:20",0.0,8.1,76.0,1027.7,324.1,3.7,5.4,334.1,0.00,4.2,9.7,"20:10:16",1
"20/02/20","20:30",0.0,8.0,76.3,1027.9,325.3,3.6,6.0,330.4,0.00,4.1,9.5,"20:21:12",1
"20/02/20","20:40",0.0,7.6,76.8,1027.9,327.1,2.5,4.3,331.6,0.00,3.8,9.5,"20:35:52",1
"20/02/20","20:50",0.0,7.4,77.7,1027.9,323.6,3.2,4.2,327.2,0.00,3.8,9.3,"20:48:40",1
"20/02/20","21:00",0.0,7.3,78.4,1027.9,329.5,2.8,4.9,323.3,0.00,3.8,9.3,"20:53:44",1
"20/02/20","21:10",0.0,7.3,79.1,1028.2,335.1,2.7,5.0,330.8,0.00,4.0,9.4,"21:07:28",1
"20/02/20","21:20",0.0,7.1,79.9,1028.2,331.9,3.1,4.3,338.8,0.00,3.9,9.2,"21:17:36",1
"20/02/20","21:30",0.0,7.2,80.6,1028.2,327.8,4.1,6.5,330.9,0.00,4.1,9.3,"21:28:54",1
"20/02/20","21:40",0.0,7.2,80.6,1028.2,324.9,3.9,5.2,333.6,0.00,4.1,9.1,"21:30:24",1
"20/02/20","21:50",0.0,6.8,80.7,1028.2,326.0,2.8,4.1,331.7,0.00,3.8,9.0,"21:40:24",1
"20/02/20","22:00",0.0,6.2,81.4,1028.4,327.4,2.3,3.4,323.3,0.00,3.3,8.9,"21:59:38",1
"20/02/20","22:10",0.0,6.4,82.7,1028.4,326.6,4.0,5.9,345.0,0.00,3.7,8.8,"22:04:28",1
"20/02/20","22:20",0.0,6.5,83.5,1028.6,325.4,4.0,5.5,323.5,0.00,4.0,8.7,"22:13:34",1
"20/02/20","22:30",0.0,6.5,84.2,1028.4,322.5,4.0,6.5,316.5,0.00,4.1,8.8,"22:26:10",1
"20/02/20","22:40",0.0,6.4,84.6,1028.6,325.8,3.5,5.6,333.3,0.00,4.0,8.7,"22:33:06",1
"20/02/20","22:50",0.0,6.3,85.2,1028.4,329.5,3.5,5.2,325.8,0.00,4.0,8.8,"22:48:06",1
"20/02/20","23:00",0.0,6.3,85.5,1028.4,323.5,3.6,5.5,338.6,0.00,4.1,8.7,"22:51:06",1
"20/02/20","23:10",0.0,6.1,85.9,1028.2,334.2,2.0,4.1,322.0,0.00,4.0,8.5,"23:00:34",1
"20/02/20","23:20",0.0,5.9,86.2,1028.4,337.9,1.7,3.4,337.7,0.00,3.8,8.4,"23:16:54",1
"20/02/20","23:30",0.0,6.0,86.7,1028.4,328.0,3.5,4.8,331.3,0.00,4.0,8.3,"23:26:44",1
"20/02/20","23:40",0.0,6.0,86.9,1028.4,321.2,3.2,5.0,337.6,0.00,4.0,8.5,"23:30:28",1
"20/02/20","23:50",0.0,5.8,87.2,1028.6,331.7,2.6,4.8,304.5,0.00,3.9,8.5,"23:41:36",1
"20/02/20","24:00",0.0,5.6,87.5,1028.2,332.9,3.2,4.7,334.6,0.00,3.7,8.4,"23:53:34",1
